Hourly Weather Almancil

Today, 7 March, Sunday

Time Temperature Precipitation Wind Pressure Humidity
00:00 +12°C° 0 mm 2 mps 758 mmHg 90%
01:00 +12°C° 0 mm 2 mps 758 mmHg 90%
02:00 +12°C° 0 mm 2 mps 758 mmHg 91%
03:00 +10°C° 0.1 mm 2 mps 758 mmHg 91%
04:00 +10°C° 0.1 mm 2 mps 758 mmHg 90%
05:00 +10°C° 0.1 mm 2 mps 758 mmHg 90%
06:00 +12°C° 0.1 mm 2 mps 758 mmHg 85%
07:00 +13°C° 0.1 mm 2 mps 758 mmHg 81%
08:00 +14°C° 0.1 mm 2 mps 758 mmHg 76%
09:00 +16°C° 0 mm 2 mps 758 mmHg 69%
10:00 +18°C° 0 mm 2 mps 758 mmHg 63%
11:00 +20°C° 0 mm 2 mps 759 mmHg 56%
12:00 +20°C° 0 mm 3 mps 758 mmHg 55%
13:00 +20°C° 0 mm 4 mps 758 mmHg 54%
14:00 +20°C° 0 mm 4 mps 757 mmHg 53%
15:00 +19°C° 0 mm 5 mps 757 mmHg 61%
16:00 +17°C° 0 mm 5 mps 757 mmHg 69%
17:00 +15°C° 0 mm 5 mps 757 mmHg 77%
18:00 +13°C° 0 mm 5 mps 757 mmHg 83%
19:00 +12°C° 0 mm 5 mps 757 mmHg 89%
20:00 +10°C° 0 mm 4 mps 758 mmHg 94%
21:00 +10°C° 0 mm 4 mps 758 mmHg 95%
22:00 +10°C° 0 mm 4 mps 758 mmHg 95%
23:00 +10°C° 0 mm 4 mps 758 mmHg 96%

Tomorrow, 8 March, Monday

Time Temperature Precipitation Wind Pressure Humidity
00:00 +8°C° 0 mm 4 mps 757 mmHg 96%
01:00 +8°C° 0 mm 4 mps 757 mmHg 96%
02:00 +7°C° 0 mm 4 mps 757 mmHg 95%
03:00 +7°C° 0 mm 4 mps 757 mmHg 95%
04:00 +7°C° 0 mm 4 mps 757 mmHg 95%
05:00 +6°C° 0 mm 4 mps 757 mmHg 95%
06:00 +7°C° 0 mm 4 mps 757 mmHg 90%
07:00 +8°C° 0 mm 4 mps 757 mmHg 86%
08:00 +10°C° 0 mm 4 mps 758 mmHg 82%
09:00 +12°C° 0 mm 4 mps 758 mmHg 75%
10:00 +13°C° 0 mm 4 mps 758 mmHg 69%
11:00 +15°C° 0 mm 4 mps 758 mmHg 62%
12:00 +15°C° 0 mm 4 mps 757 mmHg 60%
13:00 +16°C° 0 mm 5 mps 757 mmHg 58%
14:00 +16°C° 0 mm 5 mps 757 mmHg 56%
15:00 +15°C° 0 mm 5 mps 757 mmHg 62%
16:00 +14°C° 0 mm 5 mps 756 mmHg 68%
17:00 +12°C° 0 mm 5 mps 756 mmHg 75%
18:00 +10°C° 0 mm 5 mps 757 mmHg 79%
19:00 +9°C° 0 mm 5 mps 757 mmHg 84%
20:00 +7°C° 0 mm 5 mps 758 mmHg 89%
21:00 +7°C° 0 mm 4 mps 758 mmHg 90%
22:00 +7°C° 0 mm 4 mps 758 mmHg 91%
23:00 +6°C° 0 mm 4 mps 758 mmHg 92%

Day after tomorrow, 9 March, Tuesday

Time Temperature Precipitation Wind Pressure Humidity
00:00 +6°C° 0 mm 4 mps 758 mmHg 91%
01:00 +7°C° 0 mm 3 mps 758 mmHg 91%
02:00 +7°C° 0 mm 3 mps 757 mmHg 91%
03:00 +7°C° 0 mm 3 mps 757 mmHg 91%
04:00 +7°C° 0 mm 3 mps 758 mmHg 90%
05:00 +7°C° 0 mm 3 mps 758 mmHg 90%
06:00 +8°C° 0 mm 3 mps 758 mmHg 83%
07:00 +9°C° 0 mm 3 mps 758 mmHg 76%
08:00 +10°C° 0 mm 3 mps 759 mmHg 70%
09:00 +13°C° 0 mm 2 mps 759 mmHg 63%
10:00 +15°C° 0 mm 2 mps 759 mmHg 56%
11:00 +17°C° 0 mm 2 mps 759 mmHg 50%
12:00 +17°C° 0 mm 2 mps 759 mmHg 49%
13:00 +18°C° 0 mm 2 mps 759 mmHg 49%
14:00 +18°C° 0 mm 2 mps 758 mmHg 49%
15:00 +17°C° 0 mm 2 mps 758 mmHg 55%
16:00 +16°C° 0 mm 2 mps 759 mmHg 62%
17:00 +15°C° 0 mm 2 mps 759 mmHg 68%
18:00 +13°C° 0 mm 3 mps 759 mmHg 73%
19:00 +12°C° 0 mm 4 mps 760 mmHg 78%
20:00 +11°C° 0 mm 4 mps 761 mmHg 83%
21:00 +10°C° 0 mm 4 mps 761 mmHg 82%
22:00 +9°C° 0 mm 5 mps 761 mmHg 81%
23:00 +9°C° 0 mm 5 mps 761 mmHg 80%

10 March, Wednesday

Time Temperature Precipitation Wind Pressure Humidity
00:00 +8°C° 0 mm 4 mps 761 mmHg 81%
01:00 +8°C° 0 mm 4 mps 761 mmHg 82%
02:00 +9°C° 0 mm 3 mps 761 mmHg 83%
03:00 +9°C° 0 mm 3 mps 761 mmHg 83%
04:00 +8°C° 0 mm 3 mps 762 mmHg 84%
05:00 +8°C° 0 mm 2 mps 762 mmHg 85%
06:00 +10°C° 0 mm 2 mps 762 mmHg 79%
07:00 +12°C° 0 mm 2 mps 763 mmHg 74%
08:00 +14°C° 0 mm 2 mps 763 mmHg 68%
09:00 +16°C° 0 mm 2 mps 763 mmHg 63%
10:00 +18°C° 0 mm 2 mps 764 mmHg 58%
11:00 +20°C° 0 mm 2 mps 764 mmHg 53%
12:00 +20°C° 0 mm 2 mps 763 mmHg 53%
13:00 +20°C° 0 mm 2 mps 763 mmHg 53%
14:00 +21°C° 0 mm 1 mps 763 mmHg 53%
15:00 +19°C° 0 mm 2 mps 763 mmHg 60%
16:00 +17°C° 0 mm 2 mps 763 mmHg 68%
17:00 +16°C° 0 mm 2 mps 763 mmHg 75%
18:00 +15°C° 0 mm 2 mps 763 mmHg 78%
19:00 +13°C° 0 mm 2 mps 764 mmHg 80%
20:00 +12°C° 0 mm 2 mps 764 mmHg 83%
21:00 +12°C° 0 mm 2 mps 764 mmHg 82%
22:00 +11°C° 0 mm 3 mps 765 mmHg 81%
23:00 +10°C° 0 mm 3 mps 765 mmHg 81%

11 March, Thursday

Time Temperature Precipitation Wind Pressure Humidity
00:00 +10°C° 0 mm 3 mps 764 mmHg 80%
01:00 +10°C° 0 mm 3 mps 764 mmHg 80%
02:00 +10°C° 0 mm 3 mps 764 mmHg 79%
03:00 +10°C° 0 mm 3 mps 764 mmHg 79%
04:00 +10°C° 0 mm 2 mps 764 mmHg 78%
05:00 +10°C° 0 mm 2 mps 764 mmHg 77%
06:00 +12°C° 0 mm 2 mps 764 mmHg 72%
07:00 +14°C° 0 mm 2 mps 764 mmHg 68%
08:00 +16°C° 0 mm 2 mps 765 mmHg 63%
09:00 +18°C° 0 mm 2 mps 765 mmHg 58%
10:00 +19°C° 0 mm 2 mps 765 mmHg 53%
11:00 +21°C° 0 mm 2 mps 765 mmHg 48%
12:00 +21°C° 0 mm 2 mps 764 mmHg 50%
13:00 +21°C° 0 mm 2 mps 764 mmHg 51%
14:00 +23°C° 0 mm 1 mps 763 mmHg 52%
15:00 +21°C° 0 mm 1 mps 763 mmHg 60%
16:00 +19°C° 0 mm 2 mps 763 mmHg 68%
17:00 +17°C° 0 mm 2 mps 763 mmHg 75%
18:00 +16°C° 0 mm 2 mps 763 mmHg 78%
19:00 +14°C° 0 mm 2 mps 763 mmHg 81%
20:00 +13°C° 0 mm 2 mps 763 mmHg 83%
21:00 +12°C° 0 mm 3 mps 763 mmHg 86%
22:00 +12°C° 0 mm 3 mps 763 mmHg 88%
23:00 +11°C° 0 mm 3 mps 763 mmHg 91%

12 March, Friday

Time Temperature Precipitation Wind Pressure Humidity
00:00 +11°C° 0 mm 3 mps 763 mmHg 92%
01:00 +11°C° 0 mm 3 mps 762 mmHg 94%
02:00 +11°C° 0 mm 3 mps 762 mmHg 96%
03:00 +10°C° 0 mm 3 mps 762 mmHg 95%
04:00 +10°C° 0 mm 3 mps 762 mmHg 95%
05:00 +10°C° 0 mm 3 mps 761 mmHg 95%
06:00 +11°C° 0 mm 3 mps 762 mmHg 90%
07:00 +12°C° 0 mm 4 mps 762 mmHg 86%
08:00 +14°C° 0 mm 4 mps 762 mmHg 81%
09:00 +17°C° 0 mm 4 mps 762 mmHg 75%
10:00 +18°C° 0 mm 3 mps 762 mmHg 69%
11:00 +20°C° 0 mm 2 mps 762 mmHg 62%
12:00 +21°C° 0 mm 3 mps 762 mmHg 61%
13:00 +21°C° 0 mm 3 mps 761 mmHg 60%
14:00 +21°C° 0 mm 4 mps 760 mmHg 59%
15:00 +20°C° 0 mm 4 mps 760 mmHg 64%
16:00 +19°C° 0 mm 4 mps 760 mmHg 70%
17:00 +17°C° 0 mm 5 mps 760 mmHg 76%
18:00 +15°C° 0 mm 5 mps 760 mmHg 80%
19:00 +14°C° 0 mm 5 mps 761 mmHg 84%
20:00 +12°C° 0 mm 5 mps 761 mmHg 88%
21:00 +12°C° 0 mm 5 mps 761 mmHg 89%
22:00 +12°C° 0 mm 5 mps 761 mmHg 90%
23:00 +10°C° 0 mm 5 mps 761 mmHg 91%
Show more